Lexington Weather

Lexington, Massachusetts, USA

42°F
1/23/2020 12:05pm 
  • Lexington Conditions: Mostly cloudy
  • Temperature: 42.1°F / 5.6°CWarmer 5.1°F than last hour.
  • Dew Point: 22.3°FIncreased 1.3°Fsince last hour.
  • Relative Humidity: 45%Decreased 7.0% since last hour.
  • Wind: Calm, 10-min avg: Calm, gust: 4 mph
  • Barometer: 30.31 inFalling 0.03  inHg/hr Falling Slowly
  • Visibility: 10 miles
  • Rain Today: 0.01 in
  •   

Regional Weather Roundup
for Boston / Norton, MA

        
000
ASUS41 KBOX 210710
RWRBOX

REGIONAL WEATHER ROUNDUP
NATIONAL WEATHER SERVICE BOSTON/NORTON MA
200 AM EST TUE JAN 21 2020

NOTE:  "FAIR" INDICATES FEW OR NO CLOUDS BELOW 12,000 FEET WITH NO 
SIGNIFICANT WEATHER AND/OR OBSTRUCTIONS TO VISIBILITY.

MAZALL-210800-
EASTERN MASSACHUSETTS
  
CITY           SKY/WX    TMP DP  RH WIND       PRES   REMARKS
BOSTON         FAIR      21  -1  38 NW14G21   30.33R WCI   8          
BEVERLY        FAIR      17  -2  43 NW6       30.31R WCI   9          
LAWRENCE       FAIR      17  -2  43 NW7       30.34R WCI   8          
BEDFORD        FAIR      15  -4  42 NW6       30.32R WCI   6          
BLUE HILL      NOT AVBL                                               
NORWOOD        FAIR       9   0  67 CALM      30.33R                  
MARSHFIELD     FAIR      21   1  42 VRB6G12   30.31R WCI  14          
PLYMOUTH       FAIR      17   1  49 NW8       30.30R WCI   7          
TAUNTON        FAIR      16   1  51 W5        30.32R WCI   9          
NEW BEDFORD    FAIR      17   2  51 W7        30.32R WCI   8          
$$

MAZALL-210800-
CAPE COD AND THE ISLANDS
  
CITY           SKY/WX    TMP DP  RH WIND       PRES   REMARKS
FALMOUTH       CLEAR     18   0  45 NW6       30.31R WCI   9          
HYANNIS        FAIR      21   5  50 W6        30.28S WCI  13          
CHATHAM        FAIR      24  10  55 VRB7      30.29R WCI  16          
PROVINCETOWN   FAIR      24  13  62 N14G21    30.30R WCI  12          
NANTUCKET      FAIR      24   8  50 NW16      30.29R WCI  11          
MARTHAS VNYRD  FAIR      21   2  43 NW16G22   30.30S WCI   7          
$$
 
MAZALL-210800-
CENTRAL AND WESTERN MASSACHUSETTS
  
CITY           SKY/WX    TMP DP  RH WIND       PRES   REMARKS
WORCESTER      FAIR      14  -5  42 NW10      30.26R WCI   1          
FITCHBURG      FAIR      12  -4  48 N6        30.33R WCI   3          
ORANGE         FAIR       3  -3  76 CALM      30.33R                  
SPRINGFIELD    FAIR       3  -3  75 CALM      30.33R                  
WESTFIELD      FAIR      14   1  56 NW3       30.35R                  
NORTH ADAMS    FAIR       2  -2  83 NW6       30.35R WCI  -9          
PITTSFIELD     FAIR      12   4  70 VRB7      30.27S WCI   1          
$$
 
RIZALL-210800-
RHODE ISLAND
  
CITY           SKY/WX    TMP DP  RH WIND       PRES   REMARKS
PROVIDENCE     FAIR      17   2  51 NW7       30.34R WCI   8          
NEWPORT        FAIR      20   4  50 NW12      30.32R WCI   8          
BLOCK ISLAND   FAIR      20   5  52 N9        30.35R WCI   9          
SMITHFIELD     FAIR      14   1  56 NW7       30.30R WCI   4          
WESTERLY       FAIR      19   0  43 VRB3      30.35S                  
$$
 
CTZALL-210800-
CONNECTICUT
  
CITY           SKY/WX    TMP DP  RH WIND       PRES   REMARKS
BRADLEY INTL   FAIR      14   3  61 N6        30.35R WCI   5          
HARTFORD       FAIR      13   3  64 CALM      30.38R                  
BRIDGEPORT     FAIR      18   4  54 W7        30.39R WCI   9          
DANBURY        FAIR      15   2  56 VRB5      30.37R WCI   8          
GROTON         FAIR      16   2  54 NW8       30.35R WCI   5          
NEW HAVEN      FAIR      21   6  52 W6        30.37R WCI  13          
CHESTER        NOT AVBL                                               
MERIDEN        FAIR      16   6  65 W8        30.37R WCI   5          
WILLIMANTIC    FAIR      12   0  58 CALM      30.36R                  
OXFORD         FAIR      15   7  70 N7        30.32R WCI   5          
$$

MEZ002-015-021-024-NHZ003-005-008-011-012-014-VTZ005-008-210800-
NORTHERN NEW ENGLAND
  
CITY           SKY/WX    TMP DP  RH WIND       PRES   REMARKS
PORTLAND ME    FAIR       6  -4  63 W3        30.31R                  
BANGOR ME      FAIR       8  -2  63 W12       30.27R WCI  -7          
CONCORD NH     FAIR      10  -3  55 CALM      30.33R                  
MANCHESTER NH  FAIR      16  -2  45 NW8       30.31R WCI   5          
NASHUA NH      FAIR      12   0  58 CALM      30.35R                  
PORTSMOUTH NH  CLEAR     16  -3  43 NW6       30.29R WCI   7          
JAFFREY NH     FAIR      12  -3  51 N5        30.27R WCI   4          
KEENE NH       FAIR      -4  -7  87 CALM      30.35R                  
BURLINGTON VT  FAIR       1  -4  79 CALM      30.37R                  
MT. WASHINGTON CLEAR     -6 -13  71 NW61        N/A  WCI -42          
$$

NYZ052-076-210800-
EASTERN NEW YORK
  
CITY           SKY/WX    TMP DP  RH WIND       PRES   REMARKS
ALBANY         FAIR      14   5  67 W7        30.40S WCI   4          
NEW YORK CITY  FAIR      22   7  52 NW13      30.39R WCI  10          
$$
 
ANZALL-210800-
MARINE OBSERVATIONS
  
STATION/POSITION TIME  TEMP    WIND        PRES    VSBY  WAVE
                       AIR SEA DIR/SP/G                  HT/PER
                 (UTC) (F)     (DEG/KT/KT) (MB)    (MI)  (FT/S)
BOSTON BUOY      0650   23 43  330/ 23/ 29 1025.4R         4/ 4
BUZZARDS BAY     0600   23     320/ 15/ 17 1026.9S
NANTUCKET SOUND  0640                        N/A           2/ 3
MASS BAY-STELLWA 0604   22 41  340/ 17/ 21 1024.2R  1 7/8  3/ 6
ISLE OF SHOALS   0600   20     310/ 15/ 18 1025.5R
S OF BLOCK IS    0700      45                N/A           4/11
$$

......................KEY.........................
  SKY/WX - SKY CONDITION/PRESENT WEATHER
  TMP    - TEMPERATURE IN FAHRENHEIT
  DWPT   - DEWPOINT IN FAHRENHEIT
  RH     - RELATIVE HUMIDITY IN PERCENT
  WIND   - DIRECTION AND SPEED IN MPH
  PRES   - MEAN SEA LEVEL PRESSURE IN INCHES OF HG
  WCI    - WIND CHILL INDEX
  VSB    - VISIBILITY IN MILES
  HX     - HEAT INDEX
  TC     - TEMPERATURE IN CELSIUS
  VRB    - VARIABLE WIND DIRECTION
  N/A    - NOT AVAILABLE
  
      

Other recent Regional Weather Roundups

Thu Jan 23, 11:10am

Thu Jan 23, 11:00am

Thu Jan 23, 10:10am

Thu Jan 23, 10:00am

Thu Jan 23, 9:10am

Thu Jan 23, 9:00am

Thu Jan 23, 8:10am

Thu Jan 23, 8:00am

Thu Jan 23, 7:10am

Thu Jan 23, 7:01am

Thu Jan 23, 6:10am

Thu Jan 23, 6:00am

Thu Jan 23, 5:10am

Thu Jan 23, 5:00am

Thu Jan 23, 4:10am

Thu Jan 23, 4:01am

Thu Jan 23, 3:10am

Thu Jan 23, 3:00am

Thu Jan 23, 2:10am

Thu Jan 23, 2:00am

Thu Jan 23, 1:10am

Thu Jan 23, 1:00am

Thu Jan 23, 12:10am

Thu Jan 23, 12:00am

Wed Jan 22, 11:10pm

Wed Jan 22, 11:01pm

Wed Jan 22, 10:10pm

Wed Jan 22, 10:00pm

Wed Jan 22, 9:10pm

Wed Jan 22, 9:00pm

Wed Jan 22, 8:10pm

Wed Jan 22, 8:01pm

Wed Jan 22, 7:10pm

Wed Jan 22, 7:00pm

Wed Jan 22, 6:10pm

Wed Jan 22, 6:01pm

Wed Jan 22, 5:10pm

Wed Jan 22, 5:00pm

Wed Jan 22, 4:10pm

Wed Jan 22, 4:00pm

Wed Jan 22, 3:10pm

Wed Jan 22, 3:00pm

Wed Jan 22, 2:10pm

Wed Jan 22, 2:00pm

Wed Jan 22, 1:10pm

Wed Jan 22, 1:00pm

Wed Jan 22, 12:10pm

Wed Jan 22, 12:00pm

Wed Jan 22, 11:10am

Wed Jan 22, 11:00am

Wed Jan 22, 10:10am

Wed Jan 22, 10:01am

Wed Jan 22, 9:10am

Wed Jan 22, 9:00am

Wed Jan 22, 8:10am

Wed Jan 22, 8:00am

Wed Jan 22, 7:10am

Wed Jan 22, 7:00am

Wed Jan 22, 6:10am

Wed Jan 22, 6:00am

Wed Jan 22, 5:10am

Wed Jan 22, 5:00am

Wed Jan 22, 4:10am

Wed Jan 22, 4:00am

Wed Jan 22, 3:10am

Wed Jan 22, 3:01am

Wed Jan 22, 2:10am

Wed Jan 22, 2:00am

Wed Jan 22, 1:10am

Wed Jan 22, 1:00am

Wed Jan 22, 12:10am

Wed Jan 22, 12:00am

Tue Jan 21, 11:10pm

Tue Jan 21, 11:00pm

Tue Jan 21, 10:10pm

Tue Jan 21, 10:00pm

Tue Jan 21, 9:10pm

Tue Jan 21, 9:01pm

Tue Jan 21, 8:10pm

Tue Jan 21, 8:00pm

Tue Jan 21, 7:10pm

Tue Jan 21, 7:00pm

Tue Jan 21, 6:10pm

Tue Jan 21, 6:01pm

Tue Jan 21, 5:10pm

Tue Jan 21, 5:00pm

Tue Jan 21, 4:10pm

Tue Jan 21, 4:00pm

Tue Jan 21, 3:10pm

Tue Jan 21, 3:01pm

Tue Jan 21, 2:10pm

Tue Jan 21, 2:00pm

Tue Jan 21, 1:10pm

Tue Jan 21, 1:00pm

Tue Jan 21, 12:10pm

Tue Jan 21, 12:00pm

Tue Jan 21, 11:10am

Tue Jan 21, 11:00am

Tue Jan 21, 10:10am

Tue Jan 21, 10:00am

Tue Jan 21, 9:10am

Tue Jan 21, 9:00am

Tue Jan 21, 8:10am

Tue Jan 21, 8:00am

Tue Jan 21, 7:10am

Tue Jan 21, 7:00am

Tue Jan 21, 6:10am

Tue Jan 21, 6:00am

Tue Jan 21, 5:10am

Tue Jan 21, 5:00am

Tue Jan 21, 4:10am

Tue Jan 21, 4:00am

Tue Jan 21, 3:10am

Tue Jan 21, 3:00am

Tue Jan 21, 2:01am

Tue Jan 21, 1:10am

Tue Jan 21, 1:00am

Tue Jan 21, 12:10am

Tue Jan 21, 12:00am

Mon Jan 20, 11:10pm

Mon Jan 20, 11:00pm

Mon Jan 20, 10:10pm

Mon Jan 20, 10:00pm

Mon Jan 20, 9:10pm

Mon Jan 20, 9:00pm

Mon Jan 20, 8:10pm

Mon Jan 20, 8:00pm

Mon Jan 20, 7:10pm

Mon Jan 20, 7:00pm

Mon Jan 20, 6:10pm

Mon Jan 20, 6:00pm

Mon Jan 20, 5:10pm

Mon Jan 20, 5:00pm

Mon Jan 20, 4:10pm

Mon Jan 20, 4:01pm

Mon Jan 20, 3:10pm

Mon Jan 20, 3:00pm

Mon Jan 20, 2:10pm

Mon Jan 20, 2:00pm

Mon Jan 20, 1:10pm

Mon Jan 20, 1:00pm

Mon Jan 20, 12:10pm

Mon Jan 20, 12:00pm

Meta data:

ID: f41a7811-5556-4bc5-aa4f-4daca431c0e0
Link: https://api.weather.gov/products/f41a7811-5556-4bc5-aa4f-4daca431c0e0